Location: San Antonio de Areco
(34.2500°S, 59.4670°W)
Time: 01:22:25
(UTC-03:00)

ISS - Visible Passes

Search period start: 24 July 2014 00:00
Search period end: 03 August 2014 00:00
Orbit: 411 x 419 km, 51.6° (Epoch: 24 July)

Date Brightness Start Highest point End Pass type
(mag) Time Alt. Az. Time Alt. Az. Time Alt. Az.
24 Jul -0.9 18:55:35 10° SSE 18:55:51 10° SSE 18:56:06 10° SSE visible
25 Jul -2.0 19:41:11 10° SSW 19:43:23 28° S 19:43:23 28° S visible
26 Jul -1.7 18:52:44 10° SSW 18:55:21 20° SSE 18:57:20 13° ESE visible
26 Jul -0.6 20:29:02 10° WSW 20:30:17 19° WSW 20:30:17 19° WSW visible
27 Jul -3.2 19:40:03 10° SW 19:43:25 75° NW 19:44:32 38° NNE visible
28 Jul -3.1 18:51:17 10° SW 18:54:36 54° SE 18:57:53 10° ENE visible
28 Jul 0.0 20:29:57 10° WNW 20:30:56 11° NW 20:31:54 10° NW visible
29 Jul -0.6 19:39:42 10° WSW 19:42:18 21° NW 19:44:53 10° N visible
30 Jul -1.8 18:50:25 10° WSW 18:53:37 41° NW 18:56:46 10° NNE visible
01 Aug 0.2 18:50:53 10° W 18:52:24 13° NW 18:53:55 10° NNW visible
